Regional Weather Roundup
Issued by NWS Sterling, VA

Home | Current Version | Previous Version | Text Only | Print | Product List | Glossary On
Versions: 1 2 3 4 5 6 7 8 9 10 11 12 13 14 15 16 17 18 19 20 21 22 23 24 25 26 27 28 29 30 31 32 33 34 35 36 37 38 39 40 41 42 43 44 45 46 47 48 49 50
000
ASUS41 KLWX 212310
RWRLWX

REGIONAL WEATHER ROUNDUP
NATIONAL WEATHER SERVICE BALTIMORE MD/WASHINGTON DC
700 PM EDT SUN SEP 21 2014

Note: "FAIR" indicates few or no clouds below 12,000 feet
with no significant weather and/or obstructions to visibility.
 TC=TEMPERATURE CELSIUS

 * =Non NWS site. Station does not report precipitation (e.g. rain,
    snow, etc.), thunder, or fog.

DCZ001-MDZ009-015-VAZ040>042-051-053>054-220000-
WASHINGTON METRO

CITY           SKY/WX    TMP DP  RH WIND       PRES   REMARKS
WASHINGTON NAT MOCLDY    80  64  58 S9        29.66R
DULLES         MOCLDY    79  63  57 S3        29.66R
ANDREWS AFB    PTCLDY    78  62  58 S7        29.67R
QUANTICO       PTCLDY    78  66  66 SW6       29.66S
LEESBURG*      PTCLDY    75  72  88 CALM      29.67S
MANASSAS*      MOCLDY    77  68  73 VRB6      29.67R
GAITHERSBURG*  MOCLDY    79  63  57 S8        29.70R

$$

MDZ006>007-011-014-220000-
BALTIMORE METRO

CITY           SKY/WX    TMP DP  RH WIND       PRES   REMARKS
BWI AIRPORT    MOCLDY    76  66  71 SE5       29.65S
MD SCIENCE CTR   N/A     78  65  63 MISG      29.66R
MARTIN STATE   CLEAR     75  66  73 S3        29.67R
ANNAPOLIS      CLEAR     74  63  68 S3        29.66R
FORT MEADE*    PTCLDY    73  66  78 CALM      29.68R

$$

MDZ012-015-019>023-220000-
MARYLAND EASTERN SHORE

CITY           SKY/WX    TMP DP  RH WIND       PRES   REMARKS
OCEAN CITY     CLEAR     72  69  90 CALM      29.67R
SALISBURY      CLEAR     75  67  76 S5        29.68R
BAY BRIDGE AP*   N/A     75  59  57 S3        29.66R
EASTON*        PTCLDY    77  59  53 CALM      29.70R

$$

MDZ017>025-220000-
SOUTHERN MARYLAND

CITY           SKY/WX    TMP DP  RH WIND       PRES   REMARKS
PATUXENT RIVER CLEAR     76  60  57 S6        29.67S
ST INIGOES     CLEAR     75  63  66 S6        29.67S
LEONARDTOWN*   NOT AVBL

$$

MDZ003>005-220000-
NORTH CENTRAL MARYLAND

CITY           SKY/WX    TMP DP  RH WIND       PRES   REMARKS
FREDERICK*     CLEAR     82  66  57 SW5       29.67R
HAGERSTOWN APT PTCLDY    76  67  73 SW3       29.66R
WESTMINSTER*   PTCLDY    77  70  78 S3        29.68R

$$

MDZ501>502-220000-
WESTERN MARYLAND

CITY           SKY/WX    TMP DP  RH WIND       PRES   REMARKS
OAKLAND*       MOCLDY    63  63 100 W9        29.80R
CUMBERLAND*    MOCLDY    73  59  60 NE9       29.74R

$$

VAZ025>031-220000-
SHENANDOAH VALLEY

CITY           SKY/WX    TMP DP  RH WIND       PRES   REMARKS
WINCHESTER*    PTCLDY    81  55  41 W12       29.68R
STAUNTON*      CLEAR     80  54  40 W6        29.74R

$$

WVZ021-048>050-054>055-220000-
EASTERN WEST VIRGINIA PANHANDLE

CITY           SKY/WX    TMP DP  RH WIND       PRES   REMARKS
MARTINSBURG    MOCLDY    80  54  40 W12       29.67R
PETERSBURG*    LGT RAIN  74  53  48 NW16      29.74R

$$

VAZ036>039-050-220000-
CENTRAL FOOTHILLS

CITY           SKY/WX    TMP DP  RH WIND       PRES   REMARKS
CHARLOTTESVILL PTCLDY    81  63  54 S10       29.69R
ORANGE*        MOCLDY    81  63  54 S8        29.69R

$$

VAZ055>057-220000-
NORTH AND CENTRAL PIEDMONT

CITY           SKY/WX    TMP DP  RH WIND       PRES   REMARKS
FREDERICKSBRG* PTCLDY    83  64  51 S7        29.66R
STAFFORD*      MOCLDY    79  64  59 S3        29.70S

$$

NCZ024-NYZ072-PAZ021-071-VAZ022-071-220000-
OTHER REGIONAL OBSERVATIONS

CITY           SKY/WX    TMP DP  RH WIND       PRES   REMARKS
NEW YORK CITY  CLOUDY    73  65  75 CALM      29.64F
PHILADELPHIA   MOCLDY    75  65  70 SW6       29.64S
PITTSBURGH     PTCLDY    70  46  42 W18G29    29.74R
ROANOKE        PTCLDY    73  63  70 W13       29.82R
RICHMOND       PTCLDY    82  64  54 S12       29.70S
RALEIGH        PTCLDY    80  64  58 W7        29.80S

$$

ANZ530>537-220000-
MARINE OBSERVATIONS

STATION/POSITION TIME  TEMP    WIND        PRES
                       AIR SEA DIR/SP/G
                 (UTC) (F)     (DEG/KT/KT) (MB)
THOMAS PT LIGHT  2300   75 74  190/  9/ 10 1005.5R
BALT KEY BRIDGE  2300   76     160/  9/ 10 1003.7R
COVE POINT       2300   75     190/  9/ 10 1004.5S
LEWISETTA        2300   78 76  200/  7/  7 1004.8R
SOLOMONS ISLAND  2300      76                N/A
PINEY POINT      2300          200/  6/  7   N/A

$$



USA.gov is the U.S. government's official web portal to all federal, state and local government web resources and services.